FW8306 Weather Reports


time (UTC)temp
C
wind
direction
speed
KPH
gust
KPH
rain 1hr
cm
rain 24hr
cm
rain mn
cm
humidity
%
barometer
mb
20260507064555 9 0.0 0.0 0.00 0.00 0.00 80 1017.1
20260507063055 8 0.0 0.0 0.00 0.00 0.00 84 1017.1
20260507061554 8 0.0 0.0 0.00 0.00 0.00 86 1017.0
20260507060053 7 0.0 0.0 0.00 0.00 0.00 87 1017.0
20260507054603 7 0.0 0.0 0.00 0.00 0.00 88 1016.9
20260507053056 6 0.0 0.0 0.00 0.00 0.00 89 1016.7
20260507051558 6 0.0 0.0 0.00 0.00 0.00 90 1016.7
20260507050057 5 0.0 0.0 0.00 0.00 0.00 91 1016.6
20260507044600 5 0.0 0.0 0.00 0.00 0.00 91 1016.4
20260507043052 5 0.0 0.0 0.00 0.00 0.00 90 1016.4
20260507041601 5 0.0 0.0 0.00 0.00 0.00 90 1016.4
20260507040105 4 0.0 0.0 0.00 0.00 0.00 90 1016.2
20260507034559 4 0.0 0.0 0.00 0.00 0.00 90 1016.1
20260507033051 4 0.0 0.0 0.00 0.00 0.00 90 1016.0
20260507031557 3 0.0 0.0 0.00 0.00 0.00 90 1015.9
20260507030056 3 0.0 0.0 0.00 0.00 0.00 89 1015.8
20260507024550 3 0.0 0.0 0.00 0.00 0.00 89 1015.6
20260507023048 4 0.0 0.0 0.00 0.00 0.00 89 1015.6
20260507021549 4 0.0 0.0 0.00 0.00 0.00 89 1015.5
20260507014600 4 0.0 0.0 0.00 0.00 0.00 89 1015.4
20260507013050 4 0.0 0.0 0.00 0.00 0.00 89 1015.3
20260507011602 5 0.0 0.0 0.00 0.00 0.00 88 1015.3
20260507010055 5 0.0 0.0 0.00 0.00 0.00 88 1015.1
20260507004556 5 0.0 0.0 0.00 0.00 0.00 87 1015.2
20260507003056 5 0.0 0.0 0.00 0.00 0.00 87 1015.2
20260507001613 5 0.0 0.0 0.00 0.00 0.00 86 1015.1
20260507000059 5 0.0 0.0 0.00 0.00 0.00 86 1015.1
20260506234602 5 0.0 0.0 0.00 0.00 0.00 86 1015.1
20260506233053 6 0.0 0.0 0.00 0.00 0.00 86 1015.1
20260506231550 6 0.0 0.0 0.00 0.00 0.00 86 1015.1
20260506230053 6 0.0 0.0 0.00 0.00 0.00 85 1015.1
20260506224552 6 0.0 0.0 0.00 0.00 0.00 85 1015.2
20260506223049 6 0.0 0.0 0.00 0.00 0.00 84 1015.0
20260506221555 6 0.0 0.0 0.00 0.00 0.00 84 1015.0
20260506214552 7 0.0 0.0 0.00 0.00 0.00 82 1014.7
20260506213100 7 0.0 0.0 0.00 0.00 0.00 82 1014.8
20260506211552 7 0.0 0.0 0.00 0.00 0.00 81 1014.8
20260506210100 7 0.0 0.0 0.00 0.00 0.00 80 1014.7
20260506204553 7 0.0 0.0 0.00 0.00 0.00 80 1014.6
20260506203139 7 0.0 0.0 0.00 0.00 0.00 79 1014.6
20260506201552 7 0.0 0.0 0.00 0.00 0.00 78 1014.6
20260506200053 7 0.0 0.0 0.00 0.00 0.00 77 1014.6
20260506194555 8 0.0 0.0 0.00 0.00 0.00 76 1014.4
20260506193052 8 0.0 0.0 0.00 0.00 0.00 75 1014.3
20260506191559 8 0.0 0.0 0.00 0.00 0.00 73 1014.1
20260506190056 8 0.0 0.0 0.00 0.00 0.00 71 1014.1
20260506184559 9 0.0 0.0 0.00 0.00 0.00 71 1013.8
20260506183058 10 0.0 0.0 0.00 0.00 0.00 71 1013.6
20260506181556 10 0.0 0.0 0.00 0.00 0.00 69 1013.4
20260506180055 10 0.0 0.0 0.00 0.00 0.00 68 1013.3
20260506174605 11 0.0 0.0 0.00 0.00 0.00 65 1013.1
20260506173058 11 0.0 0.0 0.00 0.00 0.00 62 1013.0
20260506171602 11 0.0 0.0 0.00 0.00 0.00 60 1012.9
20260506170100 12 0.0 0.0 0.00 0.00 0.00 56 1012.9
20260506164559 12 0.0 0.0 0.00 0.00 0.00 43 1012.8
20260506163116 12 0.0 0.0 0.00 0.00 0.00 43 1012.8
20260506161552 12 0.0 0.0 0.00 0.00 0.00 42 1012.8
20260506160054 13 0.0 0.0 0.00 0.00 0.00 43 1012.8
20260506154555 13 0.0 0.0 0.00 0.00 0.00 41 1012.7
20260506153114 13 0.0 0.0 0.00 0.00 0.00 40 1012.9
20260506151555 13 0.0 0.0 0.00 0.00 0.00 41 1012.8
20260506150055 13 0.0 0.0 0.00 0.00 0.00 40 1012.7
20260506144555 13 0.0 0.0 0.00 0.00 0.00 39 1012.6
20260506143053 13 0.0 0.0 0.00 0.00 0.00 42 1012.5
20260506141554 13 0.0 0.0 0.00 0.00 0.00 43 1012.6
20260506140053 13 0.0 0.0 0.00 0.00 0.00 45 1012.6
20260506134557 13 0.0 0.0 0.00 0.00 0.00 49 1012.3
20260506133053 13 0.0 0.0 0.00 0.00 0.00 54 1012.1
20260506131551 13 0.0 0.0 0.00 0.00 0.00 53 1012.1
20260506130050 13 0.0 0.0 0.00 0.00 0.00 56 1012.1
20260506124555 13 0.0 0.0 0.00 0.00 0.00 55 1012.1
20260506123107 14 0.0 0.0 0.00 0.00 0.00 58 1012.0
20260506121608 13 0.0 0.0 0.00 0.00 0.00 63 1012.0
20260506120059 12 0.0 0.0 0.00 0.00 0.00 67 1012.1
20260506114559 13 0.0 0.0 0.00 0.00 0.00 68 1012.1
20260506113056 12 0.0 0.0 0.00 0.00 0.00 70 1012.1
20260506111555 12 0.0 0.0 0.00 0.00 0.00 70 1012.2
20260506104550 12 0.0 0.0 0.00 0.00 0.00 65 1012.3
20260506103049 12 0.0 0.0 0.00 0.00 0.00 65 1012.3
20260506101609 12 0.0 0.0 0.00 0.00 0.00 63 1012.2
20260506100101 12 0.0 0.0 0.00 0.00 0.00 61 1012.1
20260506094553 12 0.0 0.0 0.00 0.00 0.00 60 1012.1
20260506093058 12 0.0 0.0 0.00 0.00 0.00 61 1012.0
20260506091549 12 0.0 0.0 0.00 0.00 0.00 56 1011.9
20260506084618 13 0.0 0.0 0.00 0.00 0.00 54 1011.7
20260506083053 12 0.0 0.0 0.00 0.00 0.00 55 1011.7
20260506081603 11 0.0 0.0 0.00 0.00 0.00 56 1011.7
20260506073054 11 0.0 0.0 0.00 0.00 0.00 54 1011.7
20260506071552 11 0.0 0.0 0.00 0.00 0.00 54 1011.7